Location: Beekmeers
(50.8953°N, 3.6968°E)
Time: 20:17:09
(UTC+00:00)

Cosmos 1315 Rocket - Pass Details

Date: 23 May 2024
Orbit: 515 x 542 km, 81.2° (Epoch: 14 June)

Event Time Altitude Azimuth Distance (km) Brightness Sun altitude
Exits shadow 01:40:11 24° 202° (SSW) 1,107 3.7 -13.9°
Maximum altitude 01:42:23 73° 283° (WNW) 557 2.7 -13.7°
Drops below altitude 10° 01:46:19 10° 9° (N) 1,789 6.6 -13.4°
Sets 01:48:30 0° 12° (NNE) 2,690 7.8 -13.2°
